Phuket, Thailand

7:45 AM ICT on January 19, 2017 (GMT +0700)
Phuket International

Weather History for VTSP - September, 2012

Change the Weather History Date:

Thursday, September 6, 2012

  Actual Average Record
Temperature  
Mean Temperature 80 °F -  
Max Temperature 87 °F 87 °F 96 °F (1997)
Min Temperature 73 °F 76 °F 70 °F (2015)
Cooling Degree Days 15    
Growing Degree Days 30 (Base 50)    
Moisture  
Dew Point 74 °F    
Average Humidity 81    
Maximum Humidity 100    
Minimum Humidity 70    
Precipitation  
Precipitation 0.63 in 0.53 in - ()
Sea Level Pressure  
Sea Level Pressure 29.82 in    
Wind  
Wind Speed 14 mph ()    
Max Wind Speed 25 mph    
Max Gust Speed 28 mph    
Visibility 4.9 miles    
Events Rain    
Averages and records for this station are not official NWS values.
T = Trace of Precipitation, MM = Missing Value Source: Averaged Metar Reports

Daily Weather History Graph

Daily Weather History Graph

Search for Another Location

Airport or City:

Trip Planner

Search our weather history database for the weather conditions in past years. The results will help you decide how hot, cold, wet, or windy it might be!

Date:

Astronomy

Sep. 06, 2012 Rise Set
Actual Time 6:18 AM ICT 6:31 PM ICT
Civil Twilight 5:57 AM ICT 6:52 PM ICT
Nautical Twilight 5:32 AM ICT 7:17 PM ICT
Astronomical Twilight 5:08 AM ICT 7:41 PM ICT
Moon 10:36 PM ICT (9/6) 10:35 AM ICT (9/6)
Length of Visible Light 12h 55m
Length of Day
12h 13m
Waning Gibbous, 71% of the Moon is Illuminated
Sep 6
Waning Gibbous
Sep 8
Last Quarter
Sep 16
New
Sep 23
First Quarter
Sep 30
Full

Hourly Weather History & Observations

Time (ICT) Temp. Heat Index Dew Point Humidity Pressure Visibility Wind Dir Wind Speed Gust Speed Precip Events Conditions
12:00 AM 80.6 °F 85.4 °F 73.4 °F 79% 29.86 in 4.3 mi West 17.3 mph - N/A   Mostly Cloudy
12:30 AM 80.6 °F 85.4 °F 73.4 °F 79% 29.86 in 4.3 mi West 17.3 mph - N/A   Mostly Cloudy
1:00 AM 79 °F - 76 °F 86% 29.81 in 4 mi WSW 15.0 mph - -   Mist
1:00 AM 78.8 °F - 73.4 °F 83% 29.83 in 3.1 mi West 16.1 mph 27.6 mph N/A Rain Rain
1:30 AM 77.0 °F - 73.4 °F 89% 29.83 in 3.1 mi West 25.3 mph - N/A Rain Light Rain
2:00 AM 75.2 °F - 73.4 °F 94% 29.83 in 1.9 mi West 18.4 mph - N/A Rain Rain
2:30 AM 75.2 °F - 73.4 °F 94% 29.83 in 1.9 mi West 24.2 mph - N/A Rain Heavy Rain
3:00 AM 77.0 °F - 71.6 °F 83% 29.83 in 4.3 mi West 17.3 mph - N/A   Mostly Cloudy
3:30 AM 77.0 °F - 71.6 °F 83% 29.80 in 3.1 mi West 23.0 mph - N/A Rain Rain
4:00 AM 77.0 °F - 71.6 °F 83% 29.80 in 4.3 mi West 17.3 mph - N/A Rain Light Rain
4:30 AM 73.4 °F - 73.4 °F 100% 29.80 in 4.3 mi West 12.7 mph - N/A   Mostly Cloudy
6:00 AM 78.8 °F - 73.4 °F 83% 29.80 in 4.3 mi WSW 13.8 mph - N/A   Mostly Cloudy
6:30 AM 78.8 °F - 73.4 °F 83% 29.80 in 5.0 mi West 15.0 mph - N/A   Mostly Cloudy
7:00 AM 80 °F - 76 °F 83% 29.77 in 5 mi West 13.8 mph - -   Mist
7:00 AM 80.6 °F 86.2 °F 75.2 °F 84% 29.83 in 5.0 mi West 16.1 mph - N/A   Mostly Cloudy
7:30 AM 80.6 °F 85.4 °F 73.4 °F 79% 29.83 in 5.0 mi West 13.8 mph - N/A   Mostly Cloudy
8:00 AM 80.6 °F 86.2 °F 75.2 °F 84% 29.86 in 5.0 mi West 16.1 mph - N/A   Mostly Cloudy
8:30 AM 80.6 °F 85.4 °F 73.4 °F 79% 29.86 in 5.0 mi West 15.0 mph - N/A   Mostly Cloudy
9:00 AM 80.6 °F 85.4 °F 73.4 °F 79% 29.89 in 5.6 mi West 17.3 mph - N/A   Mostly Cloudy
9:30 AM - - - N/A% 29.89 in 5.0 mi West 17.3 mph - N/A Rain Light Rain
10:00 AM 80.6 °F 85.4 °F 73.4 °F 79% 29.86 in 5.0 mi West 15.0 mph - N/A Rain Light Rain
10:30 AM 82.4 °F 88.2 °F 73.4 °F 74% 29.86 in 5.6 mi West 16.1 mph - N/A   Mostly Cloudy
11:00 AM 82.4 °F 88.2 °F 73.4 °F 74% 29.86 in 5.6 mi West 17.3 mph - N/A   Mostly Cloudy
12:00 PM 84.2 °F 90.9 °F 73.4 °F 70% 29.86 in 6.2 mi West 16.1 mph - N/A   Mostly Cloudy
12:30 PM 84.2 °F 90.9 °F 73.4 °F 70% 29.83 in 6.2 mi West 12.7 mph - N/A   Mostly Cloudy
1:00 PM 84 °F - 76 °F 71% 29.79 in 6 mi West 8.1 mph - -   Partly Cloudy
1:00 PM 84.2 °F 92.3 °F 75.2 °F 74% 29.83 in 6.2 mi West 13.8 mph - N/A   Mostly Cloudy
1:30 PM 84.2 °F 90.9 °F 73.4 °F 70% 29.83 in 6.2 mi WSW 15.0 mph - N/A   Mostly Cloudy
2:00 PM 84.2 °F 90.9 °F 73.4 °F 70% 29.80 in 6.2 mi WSW 9.2 mph - N/A   Mostly Cloudy
2:30 PM 84.2 °F 90.9 °F 73.4 °F 70% 29.77 in 6.2 mi WSW 11.5 mph - N/A   Mostly Cloudy
3:00 PM 75.2 °F - 73.4 °F 94% 29.77 in 2.5 mi WSW 8.1 mph - N/A Rain Rain
4:00 PM 80.6 °F 86.2 °F 75.2 °F 84% 29.77 in 5.6 mi WSW 5.8 mph - N/A   Mostly Cloudy
4:30 PM 82.4 °F 89.5 °F 75.2 °F 79% 29.77 in 6.2 mi WSW 5.8 mph - N/A   Mostly Cloudy
5:00 PM 82.4 °F 89.5 °F 75.2 °F 79% 29.77 in 6.2 mi WSW 6.9 mph - N/A   Mostly Cloudy
5:30 PM 82.4 °F 89.5 °F 75.2 °F 79% 29.77 in 6.2 mi WSW 9.2 mph - N/A   Mostly Cloudy
6:00 PM 80.6 °F 86.2 °F 75.2 °F 84% 29.77 in 6.2 mi SW 9.2 mph - N/A   Mostly Cloudy
6:30 PM 82.4 °F 89.5 °F 75.2 °F 79% 29.77 in 6.2 mi SW 8.1 mph - N/A   Mostly Cloudy
7:00 PM 83 °F - 76 °F 75% 29.74 in 6 mi West 6.9 mph - -   Scattered Clouds
7:00 PM 80.6 °F 86.2 °F 75.2 °F 84% 29.77 in 6.2 mi WSW 8.1 mph - N/A   Mostly Cloudy
7:30 PM 80.6 °F 86.2 °F 75.2 °F 84% 29.80 in 6.2 mi WSW 9.2 mph - N/A   Mostly Cloudy
8:00 PM 82.4 °F 89.5 °F 75.2 °F 79% 29.80 in 6.2 mi WSW 6.9 mph - N/A   Mostly Cloudy
8:30 PM 82.4 °F 89.5 °F 75.2 °F 79% 29.80 in 4.3 mi Variable 6.9 mph - N/A Rain Rain
9:00 PM 80.6 °F 86.2 °F 75.2 °F 84% 29.83 in 5.0 mi WSW 6.9 mph - N/A   Mostly Cloudy
9:30 PM 82.4 °F 89.5 °F 75.2 °F 79% 29.83 in 3.1 mi WSW 12.7 mph - N/A Rain Rain
10:00 PM 77.0 °F - 73.4 °F 89% 29.86 in 4.3 mi Variable 5.8 mph - N/A Rain Light Rain
10:30 PM 80.6 °F 86.2 °F 75.2 °F 84% 29.86 in 4.3 mi WSW 8.1 mph - N/A   Mostly Cloudy
11:00 PM 80.6 °F 85.4 °F 73.4 °F 79% 29.86 in 4.3 mi WSW 11.5 mph - N/A   Mostly Cloudy
11:30 PM 82.4 °F 88.2 °F 73.4 °F 74% 29.86 in 4.3 mi West 15.0 mph - N/A   Mostly Cloudy